Regional Weather Roundup
Issued by NWS

Home | Current Version | Previous Version | Text Only | Print | Product List | Glossary Off
Versions: 1 2 3 4 5 6 7 8 9 10 11 12 13 14 15 16 17 18 19 20 21 22 23 24 25 26 27 28 29 30 31 32 33 34 35 36 37 38 39 40 41 42 43 44 45 46 47 48 49 50

000
ASUS43 KMPX 230510
RWRMN
WEATHER ROUNDUP FOR MINNESOTA
NATIONAL WEATHER SERVICE TWIN CITIES/CHANHASSEN MN
1200 AM CDT TUE MAY 23 2017


NOTE: "FAIR" INDICATES FEW OR NO CLOUDS BELOW 12,000 FEET WITH NO
SIGNIFICANT WEATHER AND/OR OBSTRUCTIONS TO VISIBILITY. N/A MEANS
CURRENT SKY AND/OR WEATHER CONDITIONS ARE NOT AVAILABLE.

MNZ060>063-068>070-230600-
   Twin Cities Metro

CITY           SKY/WX    TMP DP  RH WIND       PRES   REMARKS
TWIN CITIES    CLOUDY    56  41  57 N6        29.83S
ST PAUL        CLOUDY    55  44  66 NW6       29.84S
CRYSTAL        CLOUDY    54  41  61 NW6       29.82F
BLAINE         CLOUDY    54  45  71 CALM      29.83F
LAKEVILLE      LGT RAIN  52  48  87 W5        29.84S
EDEN PRAIRIE   LGT RAIN  56  44  64 N6        29.82F
SOUTH ST PAUL  CLOUDY    56  43  59 N5        29.83S
LAKE ELMO      DRIZZLE   54  46  76 CALM      29.84S
$$
MNZ001>005-007-008-013>017-022>024-027-028-230600-
   Northwest Minnesota

CITY           SKY/WX    TMP DP  RH WIND       PRES   REMARKS
BEMIDJI        LGT RAIN  44  44  99 NW5       29.86S
HALLOCK        CLOUDY    48  45  87 N13       29.95R
ROSEAU         CLOUDY    48  43  81 N13       29.91S
WARROAD        CLOUDY    46  43  87 N12       29.91S FOG
CROOKSTON      CLOUDY    48  46  93 N9        29.92S
FOSSTON        DRIZZLE   45  43  93 N9        29.89S
DETROIT LAKES  DRIZZLE   46  45  93 NW6       29.89S
MOORHEAD       CLOUDY    48  45  87 N9        29.91R
PARK RAPIDS    CLOUDY    45  42  89 NW5       29.86S
MAHNOMEN       DRIZZLE   46  44  93 N7        29.88S
$$
MNZ006-009>011-018-025>026-230600-
   North Central Minnesota

CITY           SKY/WX    TMP DP  RH WIND       PRES   REMARKS
BAUDETTE       LGT RAIN  47  46  97 N8        29.87S FOG
FLAG ISLAND    CLOUDY    48  45  87 N18       29.91R
INTL FALLS     CLOUDY    48  45  89 N7        29.84R
WASKISH        DRIZZLE   46  45  93 N5        29.86S
BIG FORK       CLOUDY    45  45 100 CALM      29.84S
LONGVILLE      DRIZZLE   45  43  93 CALM      29.85S
GRAND RAPIDS   CLOUDY    44  42  93 CALM      29.86S
CRANE LAKE     CLOUDY    43  41  93 CALM      29.85S
ORR            CLOUDY    45  43  93 CALM      29.81S
COOK           CLOUDY    45  43  93 CALM      29.84S
WALKER         CLOUDY    44  43  97 W3        29.85S
$$
MNZ012-019>021-037-230600-
   Northeast Minnesota

CITY           SKY/WX    TMP DP  RH WIND       PRES   REMARKS
DULUTH         CLOUDY    48  44  86 N6        29.82S
ELY            CLEAR     43  43 100 CALM      29.83S
HIBBING        CLOUDY    41  40  96 CALM      29.83S
EVELETH        PTCLDY    41  39  93 CALM      29.85R
DULUTH HARBOR  CLOUDY    50  45  81 CALM      29.83F
TWO HARBORS    CLOUDY    50  45  81 CALM      29.81S
SILVER BAY     CLOUDY    46  46 100 CALM      29.81S
GRAND MARAIS     N/A     46  43  89 CALM      29.81F
G MARAIS ARPRT CLEAR     37  36  93 CALM      29.83S
$$
MNZ029>031-032-039>041-046>048-054>057-064-230600-
   West Central Minnesota

CITY           SKY/WX    TMP DP  RH WIND       PRES   REMARKS
FERGUS FALLS   CLOUDY    46  46 100 N7        29.88S
WHEATON        CLOUDY    46  43  87 NW7       29.92S
MORRIS         CLOUDY    48  45  87 NW8       29.88S
ALEXANDRIA     CLOUDY    46  44  93 N7        29.88S
ELBOW LAKE     CLOUDY    46  45  95 W9        29.89S
WADENA         CLOUDY    43  43 100 NW3       29.86F
GLENWOOD       LGT RAIN  46  45  93 N8        29.87S
APPLETON       DRIZZLE   50  43  76 NW9       29.89S
BENSON         CLOUDY    48  43  81 N8        29.90S
ORTONVILLE     LGT RAIN  48  45  87 NW9       29.90S
MADISON        CLOUDY    54  45  71 NW9       29.90S
WILLMAR        CLOUDY    50  45  81 W7        29.88S
$$
MNZ033>034-036-042>043-049>051-058-059-230600-
   Central Minnesota

CITY           SKY/WX    TMP DP  RH WIND       PRES   REMARKS
ST CLOUD       CLOUDY    46  42  86 CALM      29.84S
SAUK CENTRE    CLOUDY    48  42  80 NW6       29.86S
PAYNESVILLE    CLOUDY    45  46 100 W3        29.86S
AITKIN         DRIZZLE   45  43  93 CALM      29.83S
PINE RIVER     DRIZZLE   45  45 100 NW3       29.89S
BRAINERD       CLOUDY    47  43  86 NW9       29.85S
STAPLES        DRIZZLE   45  43  93 NW3       29.86S
LONG PRAIRIE   DRIZZLE   45  41  87 NW8       29.87S
LITTLE FALLS   DRIZZLE   46  43  87 CALM      29.85S
LITCHFIELD     MOCLDY    52  45  76 NW6       29.86S
BUFFALO        CLOUDY    52  41  65 W7        29.85S
MAPLE LAKE     CLOUDY    51  44  77 CALM      29.85F
HUTCHINSON     CLOUDY    53  46  76 NW3       29.86S
$$
MNZ037-044-045-052-053-230600-
   East Central Minnesota

CITY           SKY/WX    TMP DP  RH WIND       PRES   REMARKS
PRINCETON      MOCLDY    45  43  93 CALM      29.84S
MORA           CLOUDY    43  41  93 CALM      29.85S FOG
CAMBRIDGE      CLOUDY    46  41  81 CALM      29.82S
RUSH CITY      PTCLDY    43  41  94 CALM      29.83S
MOOSE LAKE     CLOUDY    45  43  93 CALM      29.81S
HINCKLEY       CLOUDY    48  46  93 CALM      29.83S
CLOQUET        CLOUDY    46  43  87 NW3       29.82F
MCGREGOR       CLOUDY    46  45  93 CALM      29.84S
$$
MNZ071>073-080-081-089-090-097-098-230600-
   Southwest Minnesota

CITY           SKY/WX    TMP DP  RH WIND       PRES   REMARKS
MONTEVIDEO     CLOUDY    50  43  76 VRB9      29.89S
CANBY          CLOUDY    51  44  76 CALM      29.91F
MARSHALL       CLOUDY    49  46  90 NW7       29.90S
REDWOOD FALLS  MOCLDY    50  43  77 NW8       29.87S
OLIVIA         CLOUDY    50  43  76 NW8       29.86S
PIPESTONE      CLOUDY    50  45  81 NW5       29.90F
WINDOM         DRIZZLE   50  48  93 W8        29.88F
WORTHINGTON    CLOUDY    49  47  93 W6        29.91S
JACKSON        RAIN      50  46  87 NW10      29.89S
TRACY          CLOUDY    50  48  91 NW5       29.89S
SLAYTON        CLOUDY    47  46  94 NW6       29.91S
$$
MNZ065>067-074>077-082>085-091>093-230600-
   South Central Minnesota

CITY           SKY/WX    TMP DP  RH WIND       PRES   REMARKS
MANKATO        LGT RAIN  51  50  96 E3        29.85F
NEW ULM        CLOUDY    52  48  87 W9        29.86S
ST JAMES       CLOUDY    52  48  87 W8        29.88S
FAIRMONT       CLOUDY    52  49  89 NW10      29.87S
GLENCOE        CLOUDY    55  47  74 NW5       29.84S
FARIBAULT      DRIZZLE   52  50  93 W6        29.85S
OWATONNA       DRIZZLE   52  48  87 NW12      29.84S
WASECA         CLOUDY    52  45  76 N13       29.86S
ALBERT LEA     CLOUDY    54  50  87 N10       29.84S
$$
MNZ078>079-086>088-094>096-230600-
   Southeast Minnesota

CITY           SKY/WX    TMP DP  RH WIND       PRES   REMARKS
ROCHESTER      CLOUDY    52  50  93 N9        29.83S
RED WING       CLOUDY    54  48  82 CALM      29.81F
STANTON        LGT RAIN  54  50  85 W5        29.82F
DODGE CENTER   LGT RAIN  52  48  87 NW9       29.83S
WINONA         CLOUDY    54  52  94 E5        29.80F
AUSTIN         CLOUDY    52  50  93 N3        29.82F
PRESTON        CLOUDY    52  50  94 CALM      29.81S
$$
ABBREVIATIONS USED IN REMARKS
   TC - TEMPERATURES IN CELSIUS
  WCI - WIND CHILL INDEX
   HX - HEAT INDEX
  VSB - VISIBILITY
$$




USA.gov is the U.S. government's official web portal to all federal, state and local government web resources and services.